Weather History for Dallas/Ft Worth, TX

Change the Weather History Date:

Monday, January 9, 2012

  Actual Average Record
Temperature  
Mean Temperature 46 °F 46 °F  
Max Temperature 49 °F 56 °F 82 °F (1957)
Min Temperature 43 °F 35 °F 12 °F (1977)
Degree Days  
Heating Degree Days 19 20  
Month to date heating degree days 141 180  
Since 1 July heating degree days 988 1092  
Cooling Degree Days 0 0  
Month to date cooling degree days 0 0  
Year to date cooling degree days 0 0  
Moisture  
Dew Point 42 °F    
Average Humidity 82    
Maximum Humidity 92    
Minimum Humidity 71    
Precipitation  
Precipitation 1.31 in 0.06 in 1.52 in (2013)
Month to date precipitation 1.39 0.57  
Year to date precipitation 1.39 0.57  
Snow  
Snow 0.00 in 0.00 in 2.40 in (1962)
Month to date snowfall 0.0 0.1  
Since 1 July snowfall 0.0 0.4  
Snow Depth 0.00 in    
Sea Level Pressure  
Sea Level Pressure 30.08 in    
Wind  
Wind Speed 14 mph (North)    
Max Wind Speed 24 mph    
Max Gust Speed 29 mph    
Visibility 6 miles    
Events Rain , Thunderstorm    
T = Trace of Precipitation, MM = Missing Value Source: NWS Daily Summary

Daily Weather History Graph

Daily Weather History Graph

Search for Another Location

Airport:

Trip Planner

Search our weather history database for the weather conditions in past years. The results will help you decide how hot, cold, wet, or windy it might be!

Date:

Astronomy

Jan. 09, 2012 Rise Set
Actual Time 7:31 AM CST 5:38 PM CST
Civil Twilight 7:04 AM CST 6:05 PM CST
Nautical Twilight 6:34 AM CST 6:36 PM CST
Astronomical Twilight 6:04 AM CST 7:06 PM CST
Moon 6:22 PM CST (1/9) 7:35 AM CST (1/9)
Length of Visible Light 11h 01m
Length of Day
10h 07m
Full, 100% of the Moon is Illuminated
Jan 9
Full
Jan 16
Last Quarter
Jan 23
New
Jan 30
First Quarter
Feb 7
Full

Hourly Weather History & Observations

Time (CST) Temp. Windchill Dew Point Humidity Pressure Visibility Wind Dir Wind Speed Gust Speed Precip Events Conditions
12:18 AM 48.2 °F - 44.6 °F 87% 30.09 in 4.0 mi North 16.1 mph - 0.08 in Rain , Thunderstorm Heavy Thunderstorms and Rain
12:53 AM 48.0 °F - 44.1 °F 86% 30.07 in 7.0 mi NNE 16.1 mph 20.7 mph 0.12 in Rain , Thunderstorm Thunderstorms and Rain
1:12 AM 46.4 °F 41.5 °F 42.8 °F 87% 30.12 in 6.0 mi North 10.4 mph - 0.04 in Rain Rain
1:35 AM 46.4 °F 39.8 °F 42.8 °F 87% 30.12 in 4.0 mi North 16.1 mph - 0.16 in Rain , Thunderstorm Heavy Thunderstorms and Rain
1:53 AM 46.0 °F 41.0 °F 43.0 °F 89% 30.12 in 4.0 mi North 10.4 mph - 0.26 in Rain Heavy Rain
2:53 AM 45.0 °F 38.9 °F 42.1 °F 90% 30.12 in 6.0 mi North 12.7 mph - 0.19 in Rain Heavy Rain
3:53 AM 44.1 °F 36.8 °F 41.0 °F 89% 30.10 in 6.0 mi North 16.1 mph - 0.13 in Rain Rain
4:41 AM 44.6 °F 36.9 °F 42.8 °F 93% 30.08 in 9.0 mi NNE 18.4 mph - 0.05 in Rain Light Rain
4:53 AM 44.1 °F 36.5 °F 42.1 °F 93% 30.06 in 10.0 mi NNE 17.3 mph 21.9 mph 0.05 in Rain Light Rain
5:15 AM 44.6 °F 37.8 °F 42.8 °F 93% 30.08 in 10.0 mi NNE 15.0 mph - N/A   Overcast
5:53 AM 45.0 °F 39.3 °F 42.1 °F 90% 30.06 in 10.0 mi NE 11.5 mph - 0.00 in   Overcast
6:53 AM 45.0 °F 39.3 °F 43.0 °F 93% 30.08 in 5.0 mi NNE 11.5 mph - 0.05 in Rain Rain
7:53 AM 45.0 °F 39.3 °F 43.0 °F 93% 30.13 in 5.0 mi North 11.5 mph - 0.04 in Rain Light Rain
8:24 AM 44.6 °F 37.4 °F 42.8 °F 93% 30.11 in 5.0 mi North 16.1 mph - 0.02 in Rain Light Rain
8:32 AM 44.6 °F 38.1 °F 42.8 °F 93% 30.12 in 6.0 mi North 13.8 mph - 0.02 in Rain Light Rain
8:53 AM 44.1 °F 37.7 °F 42.1 °F 93% 30.12 in 8.0 mi North 12.7 mph - 0.03 in Rain Light Rain
9:33 AM 44.6 °F 36.9 °F 41.0 °F 87% 30.09 in 9.0 mi NNE 18.4 mph 24.2 mph 0.00 in Rain Light Rain
9:53 AM 44.6 °F 37.4 °F 41.0 °F 87% 30.07 in 10.0 mi NNE 16.1 mph 25.3 mph N/A   Mostly Cloudy
9:58 AM 44.6 °F 38.4 °F 41.0 °F 87% 30.09 in 10.0 mi NNE 12.7 mph 23.0 mph N/A   Overcast
10:53 AM 45.0 °F 39.3 °F 42.1 °F 90% 30.14 in 4.0 mi North 11.5 mph - 0.02 in Rain Rain
11:04 AM 44.6 °F 37.8 °F 42.8 °F 93% 30.16 in 5.0 mi NNW 15.0 mph - 0.01 in Rain Light Rain
11:53 AM 44.1 °F 36.2 °F 39.9 °F 85% 30.15 in 7.0 mi NNW 18.4 mph - 0.02 in Rain Light Rain
12:53 PM 44.1 °F 37.7 °F 41.0 °F 89% 30.15 in 7.0 mi NNW 12.7 mph - 0.04 in Rain Light Rain
1:45 PM 42.8 °F 35.8 °F 41.0 °F 93% 30.11 in 2.5 mi North 13.8 mph - 0.09 in Rain Rain
1:53 PM 43.0 °F 35.1 °F 39.9 °F 89% 30.11 in 2.5 mi North 17.3 mph - 0.12 in Rain Heavy Rain
1:56 PM 42.8 °F 34.5 °F 39.2 °F 87% 30.09 in 1.5 mi North 18.4 mph 24.2 mph 0.01 in Rain Heavy Rain
2:07 PM 42.8 °F 35.8 °F 39.2 °F 87% 30.11 in 1.5 mi North 13.8 mph - 0.06 in Rain Rain
2:15 PM 42.8 °F 34.0 °F 41.0 °F 93% 30.05 in 1.5 mi NNE 20.7 mph 24.2 mph 0.07 in Rain Heavy Rain
2:22 PM 42.8 °F 34.0 °F 41.0 °F 93% 30.04 in 2.5 mi NNE 20.7 mph 28.8 mph 0.08 in Rain Rain
2:53 PM 44.1 °F 36.5 °F 41.0 °F 89% 30.06 in 3.0 mi North 17.3 mph 23.0 mph 0.09 in   Mostly Cloudy
3:17 PM 44.6 °F 37.8 °F 42.8 °F 93% 30.07 in 7.0 mi North 15.0 mph - 0.00 in Rain Light Rain
3:53 PM 46.0 °F 39.0 °F 43.0 °F 89% 30.04 in 7.0 mi North 17.3 mph - 0.00 in   Mostly Cloudy
4:53 PM 46.9 °F - 42.1 °F 83% 30.04 in 10.0 mi North 12.7 mph - N/A   Mostly Cloudy
5:13 PM 46.4 °F 41.1 °F 42.8 °F 87% 30.03 in 10.0 mi NE 11.5 mph - N/A   Mostly Cloudy
5:48 PM 46.4 °F 41.9 °F 42.8 °F 87% 30.05 in 10.0 mi North 9.2 mph - N/A   Overcast
5:53 PM 46.9 °F - 42.1 °F 83% 30.05 in 10.0 mi North 9.2 mph - N/A   Overcast
6:53 PM 46.9 °F - 41.0 °F 80% 30.05 in 7.0 mi North 11.5 mph - 0.00 in Rain Light Rain
7:53 PM 46.4 °F 40.7 °F 39.2 °F 76% 30.04 in 10.0 mi North 12.7 mph - N/A   Overcast
8:53 PM 46.9 °F - 37.9 °F 71% 30.03 in 10.0 mi NNE 9.2 mph - N/A   Overcast
9:11 PM 46.4 °F 41.5 °F 39.2 °F 76% 30.04 in 2.5 mi NNE 10.4 mph - 0.01 in Rain Light Rain
9:51 PM 44.6 °F 39.2 °F 42.8 °F 93% 30.06 in 1.0 mi NW 10.4 mph - 0.08 in Rain Rain
9:53 PM 45.0 °F 38.9 °F 43.0 °F 93% 30.05 in 1.0 mi NNW 12.7 mph - 0.09 in Rain Rain
10:20 PM 44.6 °F 38.8 °F 42.8 °F 93% 30.04 in 2.0 mi NNW 11.5 mph - 0.03 in Rain Light Rain
10:31 PM 44.6 °F 38.4 °F 42.8 °F 93% 30.04 in 2.0 mi North 12.7 mph - 0.04 in   Overcast
10:53 PM 44.1 °F 37.7 °F 43.0 °F 96% 30.03 in 2.0 mi NNW 12.7 mph - 0.05 in Rain Light Rain
11:53 PM 44.1 °F 37.1 °F 42.1 °F 93% 30.00 in 2.5 mi North 15.0 mph - 0.02 in Rain Rain